7 * 24
多渠道服务支持
STARLINK-33586是美国于2025年2月21日发射的星链卫星,隶属于SpaceX公司主导的星链项目。该项目旨在构建全球卫星互联网星座,为全球偏远地区、海洋空域等提供低延迟宽带网络服务。作为星链星座的一员,它进一步扩充了星链低轨卫星互联网网络的覆盖范围与服务能力。
美国
(US)
| 数据来源 | 国际轨道数据 | AOE轨道数据 |
| 星历时间 | 2026-09-03T15:02:23+0800 1天前 查看轨道信息 | 2026-08-31T23:00:00+0800 3天前 查看轨道信息 |
| 半长轴 | 6861.162km | 6861.273km |
| 偏心率 | 0.0001204 | 0.0001476 |
| 轨道倾角 | 43.001° | 43.002° |
| 近地点辐角 | 271.838° | 255.355° |
| 升交点赤经 | 216.983° | 232.057° |
| 平近点角 | 88.233° | 173.665° |
| 近地点 | 482.198km | 482.123km |
| 远地点 | 483.852km | 484.149km |
| 周期 | 94.266分钟 | 94.269分钟 |
| 每日圈数 | 15.275881 | 15.275513 |
| 事件ID | 空间交会对象 | 最接近时刻(TCA) | 交会距离 | 交会风险概率(CRP) | 交会风险指数(CRI) | 操作 |
|---|---|---|---|---|---|---|
| CDM_260905-094005-717306-307321 |
OBJECT H
(57173)
STARLINK-33586
(63073) | 2026-09-05T 09:40:39+0000 |
0.318 km
远距离 | 4.325835E-4 高风险 | 0.88 | |
| CDM_260904-091305-690306-307321 |
STARLINK-6192
(56903)
STARLINK-33586
(63073) | 2026-09-04T 09:13:31+0000 |
0.680 km
远距离 | 4.563593E-5 中风险 | 0.68 | |
| CDM_260904-175105-690306-307321 |
STARLINK-6192
(56903)
STARLINK-33586
(63073) | 2026-09-04T 17:51:22+0000 |
0.871 km
远距离 | 2.052053E-5 中风险 | 0.61 | |
| CDM_260905-041605-650406-307321 |
STARLINK-5716
(56504)
STARLINK-33586
(63073) | 2026-09-05T 04:16:32+0000 |
1.467 km
极远距离 | 3.990996E-6 低风险 | 0.47 | |
| CDM_260905-055005-650406-307321 |
STARLINK-5716
(56504)
STARLINK-33586
(63073) | 2026-09-05T 05:50:41+0000 |
1.578 km
极远距离 | 3.178724E-6 低风险 | 0.45 | |
| CDM_260904-104705-690306-307321 |
STARLINK-6192
(56903)
STARLINK-33586
(63073) | 2026-09-04T 10:47:41+0000 |
1.648 km
极远距离 | 2.467507E-6 低风险 | 0.43 | |
| CDM_260903-103506-307306-726222 |
STARLINK-33586
(63073)
OBJECT Q
(67262) | 2026-09-03T 10:35:31+0000 |
2.139 km
极远距离 | 2.142909E-6 低风险 | 0.42 | |
| CDM_260904-192505-690306-307321 |
STARLINK-6192
(56903)
STARLINK-33586
(63073) | 2026-09-04T 19:25:31+0000 |
2.128 km
极远距离 | 1.283585E-6 低风险 | 0.37 | |
| CDM_260906-171805-669906-307321 |
STARLINK-30127
(56699)
STARLINK-33586
(63073) | 2026-09-06T 17:18:41+0000 |
2.729 km
极远距离 | 1.199308E-6 低风险 | 0.37 | |
| CDM_260904-073905-690306-307321 |
STARLINK-6192
(56903)
STARLINK-33586
(63073) | 2026-09-04T 07:39:22+0000 |
2.944 km
极远距离 | 7.541537E-7 极低风险 | 0.33 |